******** Week 359 almanac for PRN-1 ******** ID: 1 Health: 0 Eccentricity: 0.001545906067 Time of Applicability(s): 147456 Orbital Inclination(rad): 0.9583389177 Rate of Right Ascen(r/s): -8.126052768e-09 SQRT(A) (m 1/2): 5153.576172 Right Ascen at Week(rad): -3.020404428 Argument of Perigee(rad): 0.05884142079 Mean Anom(rad): 0.4211496318 Af0(s): 0.0002592639648 Af1(s/s): -7.275958e-12 week: 359 ******** Week 359 almanac for PRN-2 ******** ID: 2 Health: 0 Eccentricity: 0.01692914963 Time of Applicability(s): 147456 Orbital Inclination(rad): 0.9636359451 Rate of Right Ascen(r/s): -8.046049436e-09 SQRT(A) (m 1/2): 5153.547363 Right Ascen at Week(rad): 3.100289024 Argument of Perigee(rad): -0.8187330343 Mean Anom(rad): 1.862312598 Af0(s): 3.542269287e-05 Af1(s/s): 7.275958e-12 week: 359 ******** Week 359 almanac for PRN-3 ******** ID: 3 Health: 0 Eccentricity: 0.006458759308 Time of Applicability(s): 147456 Orbital Inclination(rad): 0.9930991621 Rate of Right Ascen(r/s): -7.566029441e-09 SQRT(A) (m 1/2): 5153.591797 Right Ascen at Week(rad): -2.033759669 Argument of Perigee(rad): 1.202355189 Mean Anom(rad): -1.736672606 Af0(s): 0.000443160498 Af1(s/s): -1.091394e-11 week: 359 ******** Week 359 almanac for PRN-4 ******** ID: 4 Health: 0 Eccentricity: 0.003720760345 Time of Applicability(s): 147456 Orbital Inclination(rad): 0.9704669533 Rate of Right Ascen(r/s): -7.794610391e-09 SQRT(A) (m 1/2): 5153.683105 Right Ascen at Week(rad): -0.9627927804 Argument of Perigee(rad): -2.884318685 Mean Anom(rad): 1.256813754 Af0(s): 3.617636719e-05 Af1(s/s): 3.637979e-12 week: 359 ******** Week 359 almanac for PRN-5 ******** ID: 5 Health: 0 Eccentricity: 0.005386352539 Time of Applicability(s): 147456 Orbital Inclination(rad): 0.9796888144 Rate of Right Ascen(r/s): -7.726036106e-09 SQRT(A) (m 1/2): 5153.658691 Right Ascen at Week(rad): -2.093419762 Argument of Perigee(rad): 1.417295259 Mean Anom(rad): 1.913254168 Af0(s): -0.0001816355103 Af1(s/s): 0 week: 359 ******** Week 359 almanac for PRN-6 ******** ID: 6 Health: 0 Eccentricity: 0.003870010376 Time of Applicability(s): 147456 Orbital Inclination(rad): 0.9872388761 Rate of Right Ascen(r/s): -7.840326581e-09 SQRT(A) (m 1/2): 5153.586914 Right Ascen at Week(rad): -3.07005994 Argument of Perigee(rad): -0.5794556253 Mean Anom(rad): -0.403336954 Af0(s): -0.0004831052368 Af1(s/s): 0 week: 359 ******** Week 359 almanac for PRN-7 ******** ID: 7 Health: 0 Eccentricity: 0.02043581009 Time of Applicability(s): 147456 Orbital Inclination(rad): 0.9512981856 Rate of Right Ascen(r/s): -7.886042771e-09 SQRT(A) (m 1/2): 5153.566406 Right Ascen at Week(rad): 0.04579621747 Argument of Perigee(rad): -1.99422446 Mean Anom(rad): -1.279899866 Af0(s): -0.0001205878906 Af1(s/s): -3.637979e-12 week: 359 ******** Week 359 almanac for PRN-8 ******** ID: 8 Health: 0 Eccentricity: 0.01154899597 Time of Applicability(s): 147456 Orbital Inclination(rad): 0.9434185577 Rate of Right Ascen(r/s): -8.148910863e-09 SQRT(A) (m 1/2): 5153.631348 Right Ascen at Week(rad): 2.093361714 Argument of Perigee(rad): 0.5213265168 Mean Anom(rad): 1.551554905 Af0(s): 0.0003851275757 Af1(s/s): -3.637979e-12 week: 359 ******** Week 359 almanac for PRN-9 ******** ID: 9 Health: 0 Eccentricity: 0.003367900848 Time of Applicability(s): 147456 Orbital Inclination(rad): 0.9645946831 Rate of Right Ascen(r/s): -7.863184676e-09 SQRT(A) (m 1/2): 5153.728516 Right Ascen at Week(rad): -1.026997516 Argument of Perigee(rad): 2.067545446 Mean Anom(rad): 2.148570416 Af0(s): 0.000607461499 Af1(s/s): 0 week: 359 ******** Week 359 almanac for PRN-10 ******** ID: 10 Health: 0 Eccentricity: 0.01094579697 Time of Applicability(s): 147456 Orbital Inclination(rad): 0.9926437615 Rate of Right Ascen(r/s): -7.566029441e-09 SQRT(A) (m 1/2): 5153.61084 Right Ascen at Week(rad): -2.036268492 Argument of Perigee(rad): -2.256493605 Mean Anom(rad): -2.72503785 Af0(s): -0.0004657707275 Af1(s/s): 0 week: 359 ******** Week 359 almanac for PRN-11 ******** ID: 11 Health: 0 Eccentricity: 0.002222537994 Time of Applicability(s): 147456 Orbital Inclination(rad): 0.9640913457 Rate of Right Ascen(r/s): -8.068907531e-09 SQRT(A) (m 1/2): 5153.521973 Right Ascen at Week(rad): -3.051117374 Argument of Perigee(rad): -2.293135372 Mean Anom(rad): 0.654972346 Af0(s): -0.0003391534424 Af1(s/s): 1.455192e-11 week: 359 ******** Week 359 almanac for PRN-12 ******** ID: 12 Health: 0 Eccentricity: 0.00904417038 Time of Applicability(s): 147456 Orbital Inclination(rad): 0.9589740817 Rate of Right Ascen(r/s): -7.760323248e-09 SQRT(A) (m 1/2): 5153.728516 Right Ascen at Week(rad): 1.163398968 Argument of Perigee(rad): 1.558242477 Mean Anom(rad): -1.931157851 Af0(s): -0.0004800905395 Af1(s/s): 0 week: 359 ******** Week 359 almanac for PRN-13 ******** ID: 13 Health: 0 Eccentricity: 0.009984493256 Time of Applicability(s): 147456 Orbital Inclination(rad): 0.9761594602 Rate of Right Ascen(r/s): -7.737465153e-09 SQRT(A) (m 1/2): 5153.619141 Right Ascen at Week(rad): -0.8519679115 Argument of Perigee(rad): 0.9966276179 Mean Anom(rad): 1.30109921 Af0(s): 0.0005418918335 Af1(s/s): 0 week: 359 ******** Week 359 almanac for PRN-14 ******** ID: 14 Health: 0 Eccentricity: 0.006686210632 Time of Applicability(s): 147456 Orbital Inclination(rad): 0.9423399775 Rate of Right Ascen(r/s): -7.908900866e-09 SQRT(A) (m 1/2): 5153.598633 Right Ascen at Week(rad): 1.108861757 Argument of Perigee(rad): -2.754260633 Mean Anom(rad): -2.094256785 Af0(s): 0.0005818365723 Af1(s/s): 3.637979e-12 week: 359 ******** Week 359 almanac for PRN-15 ******** ID: 15 Health: 0 Eccentricity: 0.01661205292 Time of Applicability(s): 147456 Orbital Inclination(rad): 0.9424298592 Rate of Right Ascen(r/s): -8.080336578e-09 SQRT(A) (m 1/2): 5153.635254 Right Ascen at Week(rad): -1.170904464 Argument of Perigee(rad): 1.499716017 Mean Anom(rad): 0.5542232142 Af0(s): 0.0003067454468 Af1(s/s): 3.637979e-12 week: 359 ******** Week 359 almanac for PRN-16 ******** ID: 16 Health: 0 Eccentricity: 0.01505184174 Time of Applicability(s): 147456 Orbital Inclination(rad): 0.9580932411 Rate of Right Ascen(r/s): -7.783181343e-09 SQRT(A) (m 1/2): 5153.594727 Right Ascen at Week(rad): 1.180391476 Argument of Perigee(rad): 0.9292189743 Mean Anom(rad): 2.573906288 Af0(s): 0.0001688230469 Af1(s/s): 7.275958e-12 week: 359 ******** Week 359 almanac for PRN-17 ******** ID: 17 Health: 0 Eccentricity: 0.01267528534 Time of Applicability(s): 147456 Orbital Inclination(rad): 0.9591658293 Rate of Right Ascen(r/s): -8.046049436e-09 SQRT(A) (m 1/2): 5153.537598 Right Ascen at Week(rad): 2.197970515 Argument of Perigee(rad): -1.124212051 Mean Anom(rad): 1.47565394 Af0(s): -5.577189941e-05 Af1(s/s): -1.091394e-11 week: 359 ******** Week 359 almanac for PRN-18 ******** ID: 18 Health: 0 Eccentricity: 0.005738258362 Time of Applicability(s): 147456 Orbital Inclination(rad): 0.9721926817 Rate of Right Ascen(r/s): -8.000333246e-09 SQRT(A) (m 1/2): 5153.592285 Right Ascen at Week(rad): -3.074990325 Argument of Perigee(rad): -2.861050563 Mean Anom(rad): -0.5117526192 Af0(s): -0.0003301093506 Af1(s/s): 1.091394e-11 week: 359 ******** Week 359 almanac for PRN-19 ******** ID: 19 Health: 0 Eccentricity: 0.01110935211 Time of Applicability(s): 147456 Orbital Inclination(rad): 0.9583688783 Rate of Right Ascen(r/s): -8.057478483e-09 SQRT(A) (m 1/2): 5153.66748 Right Ascen at Week(rad): 2.241871727 Argument of Perigee(rad): 2.927939766 Mean Anom(rad): -2.983545446 Af0(s): 0.0005464138794 Af1(s/s): 0 week: 359 ******** Week 359 almanac for PRN-20 ******** ID: 20 Health: 255 Eccentricity: 0.0003113746643 Time of Applicability(s): 147456 Orbital Inclination(rad): 0.9600227013 Rate of Right Ascen(r/s): -7.886042771e-09 SQRT(A) (m 1/2): 5153.640137 Right Ascen at Week(rad): -1.021355942 Argument of Perigee(rad): 1.221176415 Mean Anom(rad): 1.099449272 Af0(s): 9.797766113e-06 Af1(s/s): 2.546585e-11 week: 359 ******** Week 359 almanac for PRN-21 ******** ID: 21 Health: 0 Eccentricity: 0.0007147789001 Time of Applicability(s): 147456 Orbital Inclination(rad): 0.9625154201 Rate of Right Ascen(r/s): -7.897471818e-09 SQRT(A) (m 1/2): 5153.714355 Right Ascen at Week(rad): -2.027295678 Argument of Perigee(rad): -0.362467751 Mean Anom(rad): -2.191115913 Af0(s): 0.0003172968872 Af1(s/s): 3.637979e-12 week: 359 ******** Week 359 almanac for PRN-22 ******** ID: 22 Health: 0 Eccentricity: 0.01210355759 Time of Applicability(s): 147456 Orbital Inclination(rad): 0.9575359747 Rate of Right Ascen(r/s): -7.771752296e-09 SQRT(A) (m 1/2): 5153.576172 Right Ascen at Week(rad): 1.18374219 Argument of Perigee(rad): -0.9942483748 Mean Anom(rad): 2.123919989 Af0(s): -3.391534424e-05 Af1(s/s): 3.637979e-12 week: 359 ******** Week 359 almanac for PRN-23 ******** ID: 23 Health: 0 Eccentricity: 0.006021976471 Time of Applicability(s): 147456 Orbital Inclination(rad): 0.9876523319 Rate of Right Ascen(r/s): -7.611745631e-09 SQRT(A) (m 1/2): 5153.663086 Right Ascen at Week(rad): -2.068327042 Argument of Perigee(rad): -2.738921574 Mean Anom(rad): -1.638731528 Af0(s): 0.0004868736084 Af1(s/s): 3.637979e-12 week: 359 ******** Week 359 almanac for PRN-24 ******** ID: 24 Health: 0 Eccentricity: 0.01788330078 Time of Applicability(s): 147456 Orbital Inclination(rad): 0.9352992454 Rate of Right Ascen(r/s): -8.137481816e-09 SQRT(A) (m 1/2): 5153.586426 Right Ascen at Week(rad): -0.06253668164 Argument of Perigee(rad): 1.134222249 Mean Anom(rad): -0.297911353 Af0(s): -8.667254639e-05 Af1(s/s): 1.455192e-11 week: 359 ******** Week 359 almanac for PRN-25 ******** ID: 25 Health: 0 Eccentricity: 0.01294708252 Time of Applicability(s): 147456 Orbital Inclination(rad): 0.9473673598 Rate of Right Ascen(r/s): -7.863184676e-09 SQRT(A) (m 1/2): 5153.674805 Right Ascen at Week(rad): 1.069631396 Argument of Perigee(rad): 1.157096015 Mean Anom(rad): -2.070551988 Af0(s): 0.0003489512085 Af1(s/s): -3.637979e-12 week: 359 ******** Week 359 almanac for PRN-26 ******** ID: 26 Health: 0 Eccentricity: 0.01099967957 Time of Applicability(s): 147456 Orbital Inclination(rad): 0.9281926 Rate of Right Ascen(r/s): -8.068907531e-09 SQRT(A) (m 1/2): 5153.65625 Right Ascen at Week(rad): 0.9952168499 Argument of Perigee(rad): 0.7094428953 Mean Anom(rad): -2.892324896 Af0(s): -0.0002622786621 Af1(s/s): -7.275958e-12 week: 359 ******** Week 359 almanac for PRN-27 ******** ID: 27 Health: 0 Eccentricity: 0.01433372498 Time of Applicability(s): 147456 Orbital Inclination(rad): 0.9525385529 Rate of Right Ascen(r/s): -8.091765626e-09 SQRT(A) (m 1/2): 5153.615723 Right Ascen at Week(rad): 2.125334502 Argument of Perigee(rad): 0.8796848022 Mean Anom(rad): 1.650422139 Af0(s): -3.919106445e-05 Af1(s/s): -1.091394e-11 week: 359 ******** Week 359 almanac for PRN-28 ******** ID: 28 Health: 0 Eccentricity: 0.0004096031189 Time of Applicability(s): 147456 Orbital Inclination(rad): 0.9622457751 Rate of Right Ascen(r/s): -7.806039438e-09 SQRT(A) (m 1/2): 5153.73291 Right Ascen at Week(rad): 0.01997920095 Argument of Perigee(rad): 0.05751753844 Mean Anom(rad): -0.9977743584 Af0(s): -0.0004665244019 Af1(s/s): 7.275958e-12 week: 359 ******** Week 359 almanac for PRN-29 ******** ID: 29 Health: 0 Eccentricity: 0.00335931778 Time of Applicability(s): 147456 Orbital Inclination(rad): 0.9618203351 Rate of Right Ascen(r/s): -8.023191341e-09 SQRT(A) (m 1/2): 5153.714844 Right Ascen at Week(rad): 2.214674652 Argument of Perigee(rad): 2.739664222 Mean Anom(rad): 1.520520257 Af0(s): -0.0002924256348 Af1(s/s): 7.275958e-12 week: 359 ******** Week 359 almanac for PRN-30 ******** ID: 30 Health: 0 Eccentricity: 0.008036613464 Time of Applicability(s): 147456 Orbital Inclination(rad): 0.936557589 Rate of Right Ascen(r/s): -8.057478483e-09 SQRT(A) (m 1/2): 5153.700684 Right Ascen at Week(rad): 0.03690205005 Argument of Perigee(rad): -2.323685783 Mean Anom(rad): -1.438253796 Af0(s): 0.0001032533813 Af1(s/s): 1.455192e-11 week: 359 ******** Week 359 almanac for PRN-31 ******** ID: 31 Health: 0 Eccentricity: 0.01080846786 Time of Applicability(s): 147456 Orbital Inclination(rad): 0.9550612322 Rate of Right Ascen(r/s): -7.874613723e-09 SQRT(A) (m 1/2): 5153.716797 Right Ascen at Week(rad): 0.06997551474 Argument of Perigee(rad): 0.938606742 Mean Anom(rad): -2.380719833 Af0(s): -0.0001303856567 Af1(s/s): 3.637979e-12 week: 359 ******** Week 359 almanac for PRN-32 ******** ID: 32 Health: 0 Eccentricity: 0.009317874908 Time of Applicability(s): 147456 Orbital Inclination(rad): 0.9676566526 Rate of Right Ascen(r/s): -7.806039438e-09 SQRT(A) (m 1/2): 5153.67627 Right Ascen at Week(rad): -1.010015121 Argument of Perigee(rad): -2.002797675 Mean Anom(rad): 2.233532204 Af0(s): -6.255496826e-05 Af1(s/s): 1.818989e-11 week: 359